Regional Weather Roundup
Issued by NWS

Home | Current Version | Previous Version | Text Only | Print | Product List | Glossary Off
Versions: 1 2 3 4 5 6 7 8 9 10 11 12 13 14 15 16 17 18 19 20 21 22 23 24 25 26 27 28 29 30 31 32 33 34 35 36 37 38 39 40 41 42 43 44 45 46 47 48 49 50

000
ASUS43 KDMX 190907
RWRIA

WEATHER ROUNDUP FOR IOWA
NATIONAL WEATHER SERVICE DES MOINES IA
300 AM CST FRI DEC 19 2014

NOTE: "FAIR" INDICATES FEW OR NO CLOUDS BELOW 12,000 FEET WITH NO
SIGNIFICANT WEATHER AND/OR OBSTRUCTIONS TO VISIBILITY.

* - THESE STATIONS ARE NOT NWS STATIONS...THUS NOT UNDER NWS
QUALITY CONTROL.  THEY ALSO DO NOT REPORT WEATHER SUCH
AS PRECIPITATION OR FOG.

IAZ001>003-012>014-020>022-031>034-043>046-191000-
   NORTHWEST IOWA

CITY           SKY/WX    TMP DP  RH WIND       PRES   REMARKS
CARROLL *      CLOUDY    28  28 100 CALM      30.23S FOG
CHEROKEE *     CLOUDY    28  28 100 S6        30.21F WCI  22
DENISON *      CLOUDY    30  30 100 S6        30.21R FOG     WCI  24
LE MARS *      CLOUDY    30  28  93 S7        30.21S WCI  23
ORANGE CITY *  CLOUDY    28  27  93 S6        30.19S FOG     WCI  22
SHELDON *      CLOUDY    28  28 100 S7        30.18S FOG     WCI  21
SIOUX CITY     CLOUDY    31  27  85 SE6       30.21S WCI  25
SPENCER        CLOUDY    28  25  88 S7        30.21S WCI  21
STORM LAKE *   CLOUDY    28  28 100 S5        30.21S FOG     WCI  23
$$

IAZ055>058-069>071-079>083-090>094-191000-
   SOUTHWEST IOWA

CITY           SKY/WX    TMP DP  RH WIND       PRES   REMARKS
ATLANTIC *     CLOUDY    30  28  93 S6        30.24R WCI  24
AUDUBON *      PTCLDY    28  25  86 S3        30.23F HAZE
CLARINDA *     CLOUDY    30  28  93 S6        30.27S WCI  24
COUNCIL BLFS * CLOUDY    30  30 100 S6        30.22R FOG     WCI  24
CRESTON *      MIX PCPN  28  28 100 S5        30.24S WCI  23
HARLAN  *      CLOUDY    30  30 100 S7        30.26S WCI  23
LAMONI         CLOUDY    28  26  92 CALM      30.25S
RED OAK *      CLOUDY    30  28  93 S5        30.26R WCI  25
SHENANDOAH *   CLOUDY    30  30 100 S7        30.26S FOG     WCI  23
$$

IAZ047>049-059>061-072>074-084-191000-
   CENTRAL IOWA

CITY           SKY/WX    TMP DP  RH WIND       PRES   REMARKS
AMES           CLOUDY    26  22  84 SE5       30.27S WCI  20
ANKENY *       CLOUDY    27  25  93 CALM      30.28S
CHARITON *     CLOUDY    28  27  93 SE5       30.26S WCI  23
DES MOINES     FRZ DRZL  29  24  82 E3        30.27F
GRINNELL*      CLOUDY    27  23  86 CALM      30.28F
KNOXVILLE *    CLOUDY    27  23  86 E3        30.26F
MARSHALLTOWN   CLOUDY    24  20  84 S5        30.27S WCI  18
PELLA *        CLOUDY    27  25  93 CALM      30.29F
PERRY *        LGT SNOW  28  28 100 SE6       30.25F WCI  22
$$

IAZ004>006-015-016-023>025-035-036-191000-
   NORTH CENTRAL IOWA

CITY           SKY/WX    TMP DP  RH WIND       PRES   REMARKS
ALGONA *       CLOUDY    27  25  93 S7        30.24S WCI  19
CLARION *      CLOUDY    25  25 100 S8        30.25F WCI  16
ESTHERVILLE    CLOUDY    25  23  92 S8        30.21S WCI  16
FORT DODGE *   CLOUDY    27  21  80 S5        30.25S WCI  21
MASON CITY     CLOUDY    23  20  88 S7        30.27S WCI  15
FOREST CITY *  CLOUDY    27  21  80 S6        30.24F WCI  20
IOWA FALLS *   CLOUDY    25  21  86 S5        30.28R WCI  19
$$

IAZ007>011-017>019-026>030-037>042-050>054-066-191000-
   NORTHEAST IOWA

CITY           SKY/WX    TMP DP  RH WIND       PRES   REMARKS
CEDAR RAPIDS   CLOUDY    24  20  84 CALM      30.29S
CHARLES CITY * CLOUDY    23  19  86 CALM      30.28S
CLINTON *      MOCLDY    16  12  86 NW5       30.33S WCI   9
DECORAH *      CLOUDY    23  19  86 CALM      30.26F
DUBUQUE        CLOUDY    23  19  85 CALM      30.29R
MONTICELLO *   MOCLDY    14  14 100 CALM      30.31R
OELWEIN *      CLOUDY    23  19  86 CALM      30.28F
WATERLOO       CLOUDY    24  20  84 S3        30.29S
$$

IAZ064-065-067-068-078-191000-
   EAST CENTRAL IOWA

CITY           SKY/WX    TMP DP  RH WIND       PRES   REMARKS
DAVENPORT      CLEAR     16  11  80 CALM      30.31R HAZE
IOWA CITY      CLOUDY    26  20  77 CALM      30.33R
MT. PLEASANT * CLOUDY    27  23  86 CALM      30.30S
MUSCATINE *    CLOUDY    27  21  80 N5        30.32S WCI  21
QUAD CITIES    CLEAR     16  14  92 CALM      30.31S
$$

IAZ062-063-075>077-085>089-095>099-191000-
   SOUTHEAST IOWA

CITY           SKY/WX    TMP DP  RH WIND       PRES   REMARKS
BURLINGTON     MIX PCPN  29  21  72 N3        30.29S
FAIRFIELD *    CLOUDY    27  23  86 N5        30.29S WCI  21
FORT MADISON * CLOUDY    28  27  93 CALM      30.29F
KEOKUK *       CLOUDY    27  25  93 CALM      30.28F
OSKALOOSA *    CLOUDY    27  23  86 NE3       30.28F
CENTERVILLE *  CLOUDY    27  27 100 CALM      30.28S
OTTUMWA        CLOUDY    27  22  81 NE5       30.28S WCI  22
WASHINGTON *   CLOUDY    27  25  93 N5        30.30S WCI  21
$$

ABBREVIATIONS USED IN REMARKS
   TC - TEMPERATURES IN CELSIUS
  WCI - WIND CHILL INDEX
   HX - HEAT INDEX
  VSB - VISIBILITY
$$



USA.gov is the U.S. government's official web portal to all federal, state and local government web resources and services.